Regional Weather Roundup
Issued by NWS Grand Forks, ND

Home | Current Version | Previous Version | Text Only | Print | Product List | Glossary Off
Versions: 1 2 3 4 5 6 7 8 9 10 11 12 13 14 15 16 17 18 19 20 21 22 23 24 25 26 27 28 29 30 31 32 33 34 35 36 37 38 39 40 41 42 43 44 45 46 47 48 49 50

000
ASUS43 KFGF 011231
RWRFGF
PRAIRIE TO PINES  WEATHER ROUNDUP
NATIONAL WEATHER SERVICE EASTERN NORTH DAKOTA/GRAND FORKS ND
700 AM CDT WED JUL 01 2015

 **SATELLITE DATA USED TO AUGMENT SKY COVER AT AUTOMATED STATIONS**
 *****  WEATHER ACROSS EASTERN NORTH DAKOTA  *****

CITY           SKY/WX    TMP DP  RH WIND       PRES   REMARKS
GRAND FORKS    SUNNY     58  54  86 CALM      29.93R
6HR MIN TEMP:  54; 6HR MAX TEMP:  63;

GRAND FRKS AFB SUNNY     56  55  98 NW2       29.94R
GRAND FRKS NWS   N/A     59 N/A N/A E2          N/A
DEVILS LAKE    SUNNY     57  54  88 SE3       29.94S
6HR MIN TEMP:  55; 6HR MAX TEMP:  64;

FARGO          MOSUNNY   63  60  90 S3        29.94R
WAHPETON ARPT  CLOUDY    63  59  88 SE6       29.96R
$$

 ***** WEATHER ACROSS CENTRAL AND WESTERN NORTH DAKOTA  *****

CITY           SKY/WX    TMP DP  RH WIND       PRES   REMARKS
BISMARCK       CLOUDY    64  62  93 NE6       29.93R FOG
6HR MIN TEMP:  61; 6HR MAX TEMP:  65;

MINOT          FOG       63  62  97 N6        29.93S VSB<1/4
6HR MIN TEMP:  60; 6HR MAX TEMP:  64;

JAMESTOWN      CLOUDY    63  60  90 E6        29.94R
6HR MIN TEMP:  63; 6HR MAX TEMP:  65; 6HR PCP:  0.10;

MINOT AFB      FOG       62  62 100 N5        29.93S VSB 1/4
GARRISON         N/A     60  59  96 N3        29.94R
WILLISTON      FOG       60  59  96 NE7       29.97S VSB 1
6HR MIN TEMP:  59; 6HR MAX TEMP:  67;

DICKINSON      CLOUDY    63  60  90 NE5       29.95R FOG
6HR MIN TEMP:  61; 6HR MAX TEMP:  64;

HETTINGER      FOG       61  59  93 NE3       29.95R VSB<1/4
6HR MIN TEMP:  59; 6HR MAX TEMP:  63;

$$

 *****  OTHER AIRPORT OBSERVATIONS IN OUR AREA  *****

CITY           SKY/WX    TMP DP  RH WIND       PRES   REMARKS
WALHALLA       FAIR      57  57 100 MISG      29.95S
GRAFTON AIRPOR FAIR      57  57 100 CALM      29.95S FOG
VALLEY CITY AR CLOUDY    63  63 100 CALM      29.96R
CANDO          FAIR      57  57 100 SE3       29.96S
CAVALIER APRT  FAIR      59  59 100 CALM      29.95S FOG
GWINNER        NOT AVBL
ROLLA          FOG       54  54 100 CALM      29.98R VSB<1/4
 ***** THE ABOVE OBSERVATIONS ARE NON NWS ARE NOT QUALITY
       CONTROLLED AND MAY MIS-REPORT RAIN FOR SNOW...
$$

  *****  WEATHER ACROSS NORTHERN MINNESOTA  *****

CITY           SKY/WX    TMP DP  RH WIND       PRES   REMARKS
FLAG ISLAND    SUNNY     63  55  77 SW3       29.95R
WARROAD        SUNNY     57  54  88 CALM      29.97S
ROSEAU         SUNNY     57  54  88 CALM      29.96S
HALLOCK        SUNNY     59  57  94 CALM      29.94S
THF RVR FALLS  SUNNY     59  55  88 CALM      29.96R
6HR MIN TEMP:  55; 6HR MAX TEMP:  63;

BAUDETTE       SUNNY     54  51  90 CALM      29.97R
6HR MIN TEMP:  50; 6HR MAX TEMP:  58;

WASKISH        SUNNY     55  54  94 CALM      29.98S
CROOKSTON      SUNNY     61  55  82 CALM      29.95S
$$
  *****  WEATHER ACROSS CENTRAL AND WEST MINNESOTA  *****

CITY           SKY/WX    TMP DP  RH WIND       PRES   REMARKS
FOSSTON        MOSUNNY   61  55  82 CALM      29.96S
BEMIDJI        MOSUNNY   60  57  90 SE3       29.98R
PARK RAPIDS    MOSUNNY   61  56  83 SE8       29.98R
6HR MIN TEMP:  60; 6HR MAX TEMP:  66;

ELBOW LAKE     PTSUNNY   62  59  91 SE7       29.96R
6HR MIN TEMP:  62; 6HR MAX TEMP:  66; 6HR PCP:  0.09;

WADENA           N/A     61  57  88 SE5       29.97S
DETROIT LAKES  MOSUNNY   63  61  94 CALM      29.97S
MOORHEAD       MOSUNNY   63  61  94 CALM      29.95S FOG
FERGUS FALLS   CLOUDY    63  63 100 S8        29.95S
MORRIS MN      DRIZZLE   63  59  88 SE8       29.95R
STAPLES        CLOUDY    61  55  82 S6        29.98S
$$
  *****  WEATHER ELSEWHERE ACROSS MINNESOTA  *****

CITY           SKY/WX    TMP DP  RH WIND       PRES   REMARKS
DULUTH         MOSUNNY   52  49  89 CALM      30.02R
6HR MIN TEMP:  48; 6HR MAX TEMP:  52;

INTRNTL FALLS  SUNNY     51  49  92 CALM      29.98R
6HR MIN TEMP:  43; 6HR MAX TEMP:  51;

ELY            MOSUNNY   48  46  93 CALM      30.01S
CLOQUET        MOSUNNY   52  50  93 CALM      30.02R
WHEATON        LGT RAIN  61  57  88 SE8       29.96R
BRAINERD       PTSUNNY   56  53  90 SE5       30.00R
6HR MIN TEMP:  55; 6HR MAX TEMP:  62;

HIBBING        MOSUNNY   46  44  93 CALM      30.02R
6HR MIN TEMP:  42; 6HR MAX TEMP:  48;

ALEXANDRIA     CLOUDY    61  59  93 SE7       29.99S
6HR MIN TEMP:  61; 6HR MAX TEMP:  66; 6HR PCP:  0.11;

SAINT CLOUD    CLOUDY    59  54  83 CALM      29.99R
6HR MIN TEMP:  58; 6HR MAX TEMP:  62;

MINNEAPOLIS    CLOUDY    59  49  69 E8        30.00R
6HR MIN TEMP:  59; 6HR MAX TEMP:  63;

$$

  *****  WEATHER ACROSS SOUTH DAKOTA  *****

CITY           SKY/WX    TMP DP  RH WIND       PRES   REMARKS
SIOUX FALLS    CLOUDY    64  61  90 E7        29.90R FOG
6HR MIN TEMP:  63; 6HR MAX TEMP:  66; 6HR PCP:  0.14;

BROOKINGS      CLOUDY    63  59  88 SE7       29.95R
WATERTOWN      CLOUDY    63  60  90 E5        29.93R FOG
6HR MIN TEMP:  63; 6HR MAX TEMP:  65; 6HR PCP:  0.05;

HURON          CLOUDY    66  64  93 SE8       29.89R FOG
6HR MIN TEMP:  65; 6HR MAX TEMP:  67; 6HR PCP:  0.11;

SISSETON         N/A     63  62  97 SW5       29.93R
ABERDEEN       CLOUDY    66  64  93 NE5       29.90R FOG
6HR MIN TEMP:  64; 6HR MAX TEMP:  67; 6HR PCP:  0.07;

MITCHELL       RAIN      66  65  96 E8        29.89R FOG
PIERRE         CLEAR     63  63 100 E5        29.86R FOG
6HR MIN TEMP:  61; 6HR MAX TEMP:  66;

MOBRIDGE       CLOUDY    66  65  96 CALM      29.88R FOG
RAPID CITY     CLEAR     66  58  75 NW9       29.94R
6HR MIN TEMP:  64; 6HR MAX TEMP:  71;

$$

  *****  SOME WEATHER IN NEARBY STATES *****

CITY           SKY/WX    TMP DP  RH WIND       PRES   REMARKS
GLASGOW MT     CLOUDY    61  57  87 NE7       29.98  FOG
6HR MIN TEMP:  58; 6HR MAX TEMP:  64;

GREAT FALLS MT CLEAR     56  51  84 SW6       30.06F
6HR MIN TEMP:  54; 6HR MAX TEMP:  68;

CHEYENNE WY    CLEAR     63  51  65 NW12      30.18R
6HR MIN TEMP:  59; 6HR MAX TEMP:  65;

SCOTTSBLUFF NE CLEAR     63  58  83 CALM      30.03R
6HR MIN TEMP:  61; 6HR MAX TEMP:  73;

OMAHA NE       PTSUNNY   68  65  90 E7        29.84R
6HR MIN TEMP:  67; 6HR MAX TEMP:  70; 6HR PCP:  0.02;

DES MOINES IA  PTSUNNY   68  61  78 E7        29.89S
6HR MIN TEMP:  67; 6HR MAX TEMP:  73;

DAVENPORT IA   FOG       61  60  97 E9        29.93S VSB 1/4
6HR MIN TEMP:  59; 6HR MAX TEMP:  64;

CHICAGO IL     CLOUDY    57  51  80 NE3       29.97R
6HR MIN TEMP:  56; 6HR MAX TEMP:  57;

EAU CLAIRE WI  SUNNY     50  47  89 NE5       30.00S
6HR MIN TEMP:  45; 6HR MAX TEMP:  54;

LA CROSSE WI   MOSUNNY   56  51  84 CALM      29.99R
6HR MIN TEMP:  53; 6HR MAX TEMP:  61;

$$

  *****  SOME NATIONAL WEATHER *****

CITY           SKY/WX    TMP DP  RH WIND       PRES   REMARKS
LA GUARDIA NY  CLOUDY    72  66  81 SW10      29.77S
6HR MIN TEMP:  70; 6HR MAX TEMP:  74; 6HR PCP:  0.35;

RALEIGH NC     PTSUNNY   70  68  93 SW8       29.96R FOG
6HR MIN TEMP:  67; 6HR MAX TEMP:  70;

ATLANTA GA     CLOUDY    72  66  83 W6        30.06R
6HR MIN TEMP:  69; 6HR MAX TEMP:  72;

NEW ORLEANS LA PTSUNNY   74  68  81 CALM      30.08R
6HR MIN TEMP:  73; 6HR MAX TEMP:  76;

OKLAHOMA CITY  MOCLDY    72  69  90 S9        29.94R
6HR MIN TEMP:  71; 6HR MAX TEMP:  78;

ALBUQUERQUE NM PTCLDY    74  49  41 E9        30.22R
6HR MIN TEMP:  70; 6HR MAX TEMP:  80;

SALT LAKE CITY MOCLDY    76  57  51 CALM      30.06R
6HR MIN TEMP:  76; 6HR MAX TEMP:  84; 6HR PCP: TRACE;

LOS ANGELES CA MOCLDY    68  64  87 CALM      29.90S
6HR MIN TEMP:  66; 6HR MAX TEMP:  68;

BOISE ID       CLEAR     71  52  50 NW3       29.99S



USA.gov is the U.S. government's official web portal to all federal, state and local government web resources and services.